Other Public Products
Issued by NWS Grand Forks, ND

Home | Current Version | Previous Version | Text Only | Print | Product List | Glossary Off
Versions: 1 2 3 4 5 6 7 8 9 10 11 12 13 14 15 16 17 18 19 20 21 22 23 24 25 26 27 28 29 30 31 32 33 34 35 36 37 38 39 40 41 42 43 44 45 46 47 48 49 50

000
FPUS83 KFGF 282131
OPUFGF
PRAIRIE TO PINES WEATHER ROUNDUP
NATIONAL WEATHER SERVICE EASTERN NORTH DAKOTA/GRAND FORKS ND
400 PM CDT TUE JUL 28 2015

 **SATELLITE DATA USED TO AUGMENT SKY COVER AT AUTOMATED STATIONS**
 *****  WEATHER ACROSS EASTERN NORTH DAKOTA  *****

CITY           SKY/WX    TMP DP  RH WIND       PRES   REMARKS
GRAND FORKS    PTSUNNY   77  54  44 SW25G32   29.63R
GRAND FORKS AF MOSUNNY   77  55  45 SW28G36   29.63S
GRAND CITY NWS   N/A     75 N/A N/A SW31        N/A
BUXTON         NOT AVBL
DEVILS LAKE    CLOUDY    72  52  49 SW30G39   29.58S
FARGO          MOSUNNY   80  55  42 SW20G35   29.72R
WAHPETON ARPT  CLEAR     79  50  36 W24       29.79R
$$

 *****  WEATHER ACROSS CENTRAL AND WESTERN NORTH DAKOTA  *****

CITY           SKY/WX    TMP DP  RH WIND       PRES   REMARKS
JAMESTOWN      PTSUNNY   73  51  46 W22G30    29.71R
BISMARCK       CLOUDY    72  50  45 W31G46    29.76R
MINOT          CLOUDY    66  50  56 SW28G46   29.52S
MINOT AFB      PTSUNNY   66  55  68 SW30G48   29.48F SQUALL
GARRISON         N/A     68  52  56 W35G47    29.63R
WILLISTON      LGT RAIN  60  55  83 W30G49    29.62R
DICKINSON      CLOUDY    63  46  54 W37G49    29.80R
HETTINGER      CLOUDY    66  45  46 W39G54    29.92R
$$

 *****  OTHER OBSERVATIONS NORTHEAST NORTH DAKOTA  *****

CITY           SKY/WX    TMP DP  RH WIND       PRES   REMARKS
WALHALLA       FAIR      73  55  53 MISG      29.53S
LANGDON        MOCLDY    72  55  56 SW29G40   29.55S
CAVALIER       MOCLDY    73  55  53 SW21G26   29.56R
GRAFTON        MOCLDY    75  55  50 SW21G36   29.59S
CANDO          CLOUDY    66  54  63 SW30G45   29.55R
FORT TOTTEN    NOT AVBL
ROLLA          MOCLDY    64  54  68 SW36G49   29.49S
RUGBY          NOT AVBL
 ***** THE ABOVE OBSERVATIONS ARE NON NWS ARE NOT QUALITY
        CONTROLLED AND MAY MIS-REPORT RAIN FOR SNOW...
$$

 *****  OTHER OBSERVATIONS SOUTHEAST NORTH DAKOTA *****

CITY           SKY/WX    TMP DP  RH WIND       PRES   REMARKS
COOPERSTOWN    NOT AVBL
VALLEY CITY    NOT AVBL
OAKES            N/A     77  54  44 W23G38    29.79R
GWINNER        FAIR      77  55  47 SW23G35   29.78S
BUFFALO        NOT AVBL
WYNDMERE         N/A     79  57  47 SW16        N/A
 ***** THE ABOVE OBSERVATIONS ARE NON NWS ARE NOT QUALITY
       CONTROLLED AND MAY MIS-REPORT RAIN FOR SNOW...
$$

  *****  WEATHER ACROSS NORTHERN MINNESOTA  *****

CITY           SKY/WX    TMP DP  RH WIND       PRES   REMARKS
FLAG ISLAND    SUNNY     79  63  57 S24G33    29.56R
WARROAD        MOSUNNY   77  64  65 SW21G31   29.61R
ROSEAU         MOSUNNY   79  64  61 SW23G31   29.61R
HALLOCK        PTSUNNY   75  54  46 SW30G38   29.57S
THF RVR FALLS  PTSUNNY   73  57  56 SW16G30   29.67R
HALSTAD        NOT AVBL
FOSSTON        MOSUNNY   75  63  64 SW24G30   29.73R
BAUDETTE       MOSUNNY   80  65  59 S22G30    29.61F
WASKISH        MOSUNNY   81  66  61 SW13G22   29.66S
CROOKSTON      PTSUNNY   75  57  53 SW18G31   29.68R
$$
  *****  WEATHER ACROSS CENTRAL AND WEST MINNESOTA  *****

CITY           SKY/WX    TMP DP  RH WIND       PRES   REMARKS
BEMIDJI        SUNNY     80  56  44 SW17G25   29.71S
PARK RAPIDS    SUNNY     81  58  45 SW18G26   29.75S
WADENA         SUNNY     79  59  50 SW16G23   29.77S
DETROIT LAKES  MOSUNNY   77  55  47 SW20G28   29.78R
MOORHEAD       SUNNY     79  55  44 SW21G29   29.74S
FERGUS FALLS   MOSUNNY   75  57  53 SW17G24   29.78S
ELBOW LAKE     FAIR      76  60  57 W16G24    29.81R
MORRIS MN      SUNNY     79  61  53 W20       29.81S
STAPLES        PTSUNNY   81  63  54 SW14      29.77S
WHEATON        SUNNY     75  57  53 W12G22    29.82S
$$
  *****  WEATHER ELSEWHERE ACROSS MINNESOTA  *****

CITY           SKY/WX    TMP DP  RH WIND       PRES   REMARKS
DULUTH         PTSUNNY   84  68  58 SW14      29.79S
INTRNTL FALLS  CLOUDY    79  69  71 SW14G22   29.67R
ELY            CLOUDY    81  63  54 SW8G21    29.76S
CLOQUET        MOSUNNY   82  64  54 SW9G17    29.79S
BRAINERD       CLOUDY    79  68  69 S14       29.78S
HIBBING        CLOUDY    80  66  62 SW10      29.76F
ALEXANDRIA     PTSUNNY   79  62  56 SW17G24   29.81S
SAINT CLOUD    PTSUNNY   81  70  69 SW10      29.79F
MINNEAPOLIS    CLOUDY    83  70  64 SW9       29.81F
$$

  *****  WEATHER ACROSS SOUTH DAKOTA  *****

CITY           SKY/WX    TMP DP  RH WIND       PRES   REMARKS
SIOUX FALLS    MOSUNNY   79  58  48 NW14      29.91R
BROOKINGS      SUNNY     75  57  53 W21G28    29.91S
WATERTOWN      SUNNY     77  56  48 W23G31    29.87S
HURON          SUNNY     79  54  41 W20       29.90R
SISSETON         N/A     79  56  45 W21G30    29.80R
ABERDEEN       SUNNY     80  52  37 W22G30    29.84R
MITCHELL       SUNNY     81  52  36 W17G26    29.93R
PIERRE         SUNNY     83  44  25 W23G32    29.92S
MOBRIDGE       MOSUNNY   77  50  38 W30G41    29.85R
RAPID CITY     MOSUNNY   75  43  31 W15G25    30.04R
$$

  *****  SOME WEATHER IN NEARBY STATES *****

CITY           SKY/WX    TMP DP  RH WIND       PRES   REMARKS
GLASGOW MT     PTSUNNY   61  53  75 W31G37    29.85R
GREAT FALLS MT MOSUNNY   72  35  25 W14G24    30.11S
CHEYENNE WY    MOSUNNY   80  32  17 CALM      30.18S
SCOTTSBLUFF NE SUNNY     80  30  16 NW7G17    30.11F
OMAHA NE       LGT RAIN  88  74  63 W8        29.87R HX  96
DES MOINES IA  TSTM      84  75  74 NE14      29.87F HX  92
DAVENPORT IA   CLOUDY    79  73  82 S10       29.88F
CHICAGO IL     PTSUNNY   90  68  48 SE7       29.87F HX  94
EAU CLAIRE WI  PTSUNNY   85  71  63 S10       29.83S HX  90
LA CROSSE WI   SUNNY     83  71  67 S13       29.84R
$$

  *****  SOME NATIONAL WEATHER *****

CITY           SKY/WX    TMP DP  RH WIND       PRES   REMARKS
LA GUARDIA NY  CLOUDY    91  64  40 SE12      29.94R HX  92
RALEIGH NC     PTSUNNY   87  71  58 SE6       29.98R HX  93
ATLANTA GA     MOSUNNY   92  71  50 SE6       29.97F HX  98
NEW ORLEANS LA MOSUNNY   94  70  45 CALM      29.97F HX 100
OKLAHOMA CITY  MOSUNNY   94  70  45 S17       29.93S HX 100
ALBUQUERQUE NM MOSUNNY   92  45  19 NW8       30.10F
SALT LAKE CITY SUNNY     75  24  15 N13       30.24F
LOS ANGELES CA SUNNY     74  62  66 SW14      29.89F
BOISE ID       SUNNY     76  36  23 W9        30.22F
SEATTLE WA     MOSUNNY   76  54  46 NW9       30.25F
$$

*** WEATHER ACROSS MANITOBA...SASKATCHEWAN AND ONTARIO ***
                ***ONTARIO***

CITY           SKY/WX    TMP DP  RH WIND       PRES   REMARKS
GERALDTON      CLOUDY    81  61  50 S17G24    29.88F
THUNDER BAY    PTSUNNY   72  63  73 E10       29.82F
SIOUX LOOKOUT  LGT RAIN  72  70  94 SE10G21   29.65F FOG
TORONTO        PTSUNNY   90  57  33 S9        29.98S
BIG TROUT LK   MOSUNNY   86  61  42 S10       29.63F
PICKLE LAKE    CLOUDY    81  64  57 S12G23    29.70F
DRYDEN         LGT RAIN  72  70  94 S15       29.64R
KENORA         PTSUNNY   79  72  78 S13G26    29.57F
$$
                *** MANITOBA***

CITY           SKY/WX    TMP DP  RH WIND       PRES   REMARKS
BRANDON        PTSUNNY   66  57  72 S22G32    29.38F
DAUPHIN        PTSUNNY   70  59  68 S14G23    29.34S
ISLAND LAKE    CLOUDY    77  70  78 E7        29.50F
PILOT MOUND      N/A     66  57  72 S21G29      N/A
THE PAS        RAIN      63  61  94 NE15G25   29.43F VSB 1
THOMPSON       LGT RAIN  64  63  94 NE15G21   29.59F
WINNIPEG       MOSUNNY   73  59  60 SW26G36   29.49R
LYNN LAKE        N/A    N/A N/A N/A MISG        N/A
CHURCHILL      PTSUNNY   57  54  88 E14       29.72F
GILLAM         CLOUDY    73  61  64 NE9       29.62F
$$
                ***SASKATCHEWAN***

CITY           SKY/WX    TMP DP  RH WIND       PRES   REMARKS
ESTEVAN        LGT RAIN  59  55  88 W26G38    29.26F
KINDERSLEY     CLOUDY    70  50  49 NW18G31   29.85R
LLOYDMINSTER   PTSUNNY   73  46  38 NW21G30   29.84R
PRINCE ALBERT  LGT RAIN  61  59  94 N7        29.66R
REGINA         LGT RAIN  59  57  94 N31G41    29.41R FOG
YORKTON        PTSUNNY   68  59  73 SE3       29.32S



USA.gov is the U.S. government's official web portal to all federal, state and local government web resources and services.